GFSNW_925_temp_198.txt.gz
Temp
13 13 13 12 11 8 7 6 7 5 6 7 6 7 7 9 10 11 11 11 12 10 10 11 13 12 11 10 10 9 9 10 10 12 14 15 14 13 10 8 9 10 10 11
13 12 12 11 9 8 7 5 5 5 6 7 7 7 8 8 8 10 9 9 8 8 10 10 10 10 9 10 10 9 10 10 9 13 15 14 13 12 12 11 11 9 9 11
12 12 11 10 6 7 8 5 5 3 5 5 7 7 7 8 7 7 7 8 8 9 9 10 9 9 9 9 10 8 8 9 9 9 11 11 10 10 11 11 9 9 10 11
10 8 6 5 6 6 7 5 5 5 6 6 6 7 7 8 7 7 7 7 9 9 7 9 9 10 9 9 9 9 9 7 8 9 9 10 10 10 10 10 10 9 10 11
5 5 5 6 6 6 4 4 4 3 5 6 6 7 8 8 7 7 7 8 9 9 8 9 7 8 8 8 9 9 9 7 8 6 8 9 9 10 10 10 11 10 10 11
5 5 5 5 5 6 3 2 3 5 5 6 7 7 7 7 7 6 8 8 7 6 7 8 8 8 8 8 8 8 8 7 6 7 9 9 8 10 11 11 10 9 9 10
4 4 4 4 4 5 3 3 4 5 6 6 7 7 7 7 8 8 7 8 8 8 7 8 8 8 8 8 8 9 7 8 7 7 9 7 11 13 9 8 10 10 7 8
3 3 3 3 4 4 4 4 6 6 7 9 7 8 8 8 7 7 8 7 8 7 7 6 6 8 8 9 9 9 9 8 7 7 9 10 11 9 8 8 9 7 6 6
3 3 3 3 4 5 5 3 4 7 7 8 8 8 8 8 8 6 7 6 6 6 6 5 5 6 8 8 9 10 10 7 6 7 6 7 11 11 10 10 8 6 4 5
2 2 3 3 4 4 5 3 4 7 6 7 7 8 7 8 7 7 6 6 6 6 5 5 6 7 7 6 7 8 8 7 7 7 7 9 11 9 8 7 7 4 4 4
2 2 3 3 3 4 4 2 3 5 6 6 5 6 6 6 7 6 5 5 5 5 4 5 6 6 8 7 8 7 7 7 7 7 6 6 9 8 4 5 4 5 4 5
2 2 2 2 2 3 3 3 2 2 5 6 3 4 5 6 7 7 5 6 5 6 5 5 6 6 6 6 5 8 6 7 6 6 8 9 9 5 4 3 3 3 3 5
2 2 2 2 2 3 3 3 2 3 5 5 5 6 5 3 4 5 5 6 6 5 6 5 5 4 7 5 6 7 8 8 6 6 8 7 6 6 5 4 4 5 5 7
2 2 2 2 2 2 2 3 1 3 4 4 6 3 4 3 3 3 4 6 5 5 5 5 5 5 7 5 6 6 7 7 6 5 6 6 6 5 5 5 5 5 7 8
2 2 2 2 2 2 1 1 1 1 4 4 5 5 3 3 3 4 4 4 5 5 4 3 3 6 5 6 6 6 8 6 5 5 6 4 5 6 5 4 6 6 6 6
2 2 2 2 2 2 2 2 1 1 1 3 4 5 5 4 3 3 3 4 5 5 2 3 5 6 3 4 6 8 8 8 8 6 7 5 5 5 4 6 6 5 5 5
2 1 2 2 1 2 4 4 2 1 1 3 3 5 6 4 4 3 3 3 4 4 2 3 5 5 3 4 4 7 8 8 7 6 5 3 5 4 6 6 6 5 4 3
1 1 1 1 2 2 3 1 1 1 2 3 3 4 5 4 4 4 3 2 1 2 3 3 4 4 3 4 7 7 6 5 4 4 5 4 3 4 5 5 5 5 4 3
1 1 1 1 2 3 3 1 0 1 2 2 3 4 4 4 3 2 2 2 3 4 3 4 4 5 4 6 7 7 4 3 3 4 4 4 4 4 4 4 4 5 4 3
1 2 2 1 2 0 0 1 2 2 2 3 3 4 3 3 3 3 2 4 4 4 5 5 4 6 8 8 7 5 4 4 4 4 4 4 4 4 3 3 3 4 4 3
2 3 2 1 0 2 2 1 2 2 2 4 4 5 4 4 3 4 4 4 5 5 5 5 6 7 4 5 5 5 4 3 3 4 4 3 3 3 3 3 3 3 2 2
2 2 1 1 2 2 1 3 3 3 5 5 5 5 4 4 3 3 4 4 4 5 5 5 7 6 6 6 5 5 4 3 3 3 3 3 3 3 2 3 3 2 1 1
1 2 1 2 1 1 1 2 4 4 5 5 4 4 5 3 2 3 4 4 5 6 5 7 7 5 5 4 3 4 4 3 3 3 3 3 3 3 3 3 3 2 1 0
2 2 1 2 2 2 4 5 6 5 5 5 5 4 5 5 4 5 4 6 5 6 6 7 6 5 4 3 2 3 4 3 3 3 3 3 3 2 1 0 -1 -1 -1 -0
2 2 2 2 4 3 3 3 3 5 5 5 4 4 4 4 4 5 5 5 6 7 7 5 4 4 3 3 1 2 2 1 2 3 2 0 -0 -1 -0 -0 -1 -1 -1 -1
2 2 2 3 2 3 2 3 3 5 5 5 3 3 4 5 5 5 6 6 6 5 4 4 3 2 1 1 2 2 1 0 1 1 0 0 -1 -1 -1 -0 -0 -0 -1 -1
2 2 3 3 3 2 3 3 4 5 4 4 4 4 5 5 5 5 7 5 4 3 4 4 3 2 1 -0 -0 -1 -1 -0 -0 -0 -0 -1 -1 -1 1 1 0 0 0 -1

GFSNW_925_temp_201.txt.gz
Temp
14 14 14 14 13 11 9 7 9 6 7 7 7 8 9 9 10 10 11 11 13 12 12 13 14 14 13 13 13 13 12 13 13 14 16 17 16 15 13 11 11 11 11 11
13 14 13 13 11 10 8 6 5 5 6 8 7 7 7 8 9 9 9 10 11 10 11 10 12 11 12 12 12 12 12 12 11 15 17 16 15 14 14 13 13 11 10 12
13 13 12 12 11 9 8 5 6 4 6 4 8 8 8 8 8 8 9 8 8 9 10 11 10 10 11 11 12 9 10 11 10 11 13 13 12 13 13 12 10 11 12 12
12 12 12 10 9 8 8 6 6 6 5 5 6 8 8 9 8 8 8 8 10 10 9 10 10 11 8 10 11 10 10 9 10 11 12 12 11 11 12 12 12 11 12 13
11 10 8 6 6 7 5 4 5 4 5 6 6 7 8 9 8 8 8 9 11 10 9 10 10 11 11 10 11 11 11 9 10 8 10 10 10 12 12 12 13 13 13 11
7 6 5 6 6 7 3 3 3 6 5 6 7 7 8 9 8 7 10 11 9 10 11 12 12 11 11 11 10 10 11 9 8 8 10 11 10 11 13 12 13 12 9 12
5 5 5 6 6 6 4 4 4 5 7 7 7 8 7 8 8 9 11 11 10 11 10 10 10 10 10 10 10 11 9 9 9 8 9 7 12 15 13 11 12 13 11 9
5 5 5 5 5 6 6 5 6 7 8 9 9 9 9 10 11 10 10 10 11 10 9 7 8 9 10 10 11 11 11 10 9 8 9 10 12 13 9 9 10 8 5 7
5 4 4 4 5 5 6 6 7 10 9 11 12 11 11 11 10 10 9 9 9 9 8 7 6 8 10 10 11 13 12 10 8 8 7 7 11 13 10 11 10 6 5 5
4 3 3 4 5 5 6 5 5 10 8 10 10 11 10 11 11 10 10 8 7 8 7 6 7 8 10 8 9 10 10 10 7 7 6 8 12 10 10 8 7 4 4 4
2 3 3 4 4 5 6 3 4 8 9 9 8 8 9 9 10 8 9 8 7 7 6 7 8 8 10 8 9 9 9 8 8 8 6 6 10 9 6 5 5 5 4 4
2 2 3 3 4 4 5 5 4 5 9 8 6 7 8 9 9 9 8 8 8 8 7 8 8 7 8 8 7 10 8 8 7 7 7 8 10 7 7 6 4 4 4 4
2 3 3 3 4 4 5 5 5 7 8 8 8 8 7 6 7 7 8 9 9 8 9 7 7 6 9 7 7 7 9 10 8 8 9 9 8 8 7 5 4 5 5 7
2 2 3 3 3 4 5 5 5 7 8 7 8 6 7 6 6 6 7 8 8 8 8 7 6 6 8 7 7 7 8 9 8 7 8 8 8 6 5 4 6 5 8 7
2 2 2 3 3 3 4 4 4 4 7 6 8 7 6 6 6 6 6 7 7 8 7 6 6 7 7 8 8 7 9 8 7 7 8 7 7 7 5 5 5 6 7 7
2 2 2 2 3 4 6 4 4 4 4 6 7 8 7 6 6 6 6 7 7 7 7 6 8 8 6 5 7 9 10 9 9 8 9 8 7 6 6 5 6 7 7 6
2 2 2 2 3 4 6 6 4 3 4 5 6 8 7 6 6 6 6 6 7 7 5 5 6 7 4 5 5 8 9 10 8 6 5 5 6 5 7 6 7 7 7 6
2 2 2 2 3 3 4 3 2 2 5 7 6 7 8 6 6 4 5 4 4 4 5 5 5 6 5 5 8 9 9 7 5 6 4 4 5 6 6 6 6 6 6 6
1 2 2 3 3 6 4 2 1 3 4 5 6 6 6 6 5 4 3 3 3 6 4 5 6 6 5 8 9 9 5 5 5 6 6 6 5 5 5 5 5 5 4 4
2 2 4 2 3 2 1 1 3 4 4 5 6 7 6 6 5 5 5 5 5 5 7 7 6 7 9 10 9 8 7 5 5 4 4 5 4 4 4 4 4 4 4 4
4 5 4 3 1 2 3 3 3 4 4 6 7 7 6 6 5 5 6 6 6 6 6 6 7 8 5 8 7 7 6 4 5 5 4 4 4 4 4 4 4 4 4 4
4 4 2 2 3 3 3 4 5 6 8 8 8 7 6 6 6 5 6 6 6 6 6 6 8 8 8 8 7 6 5 5 5 5 5 4 5 4 5 5 5 4 4 3
3 4 3 3 3 3 3 4 6 6 7 7 6 5 6 4 4 5 6 5 6 9 6 8 8 8 7 6 5 5 5 5 5 5 4 4 5 5 4 4 3 1 1 -0
3 3 2 3 3 5 7 8 8 7 7 7 6 5 6 7 5 6 5 8 8 7 8 8 5 5 4 5 4 5 5 5 4 5 4 4 2 1 0 -0 -0 -0 -1 -1
3 4 3 4 6 6 6 6 6 7 7 7 6 6 6 5 5 6 7 6 6 8 7 5 4 3 3 3 2 3 3 2 2 2 2 0 0 0 0 -0 -0 0 -0 -0
4 4 3 5 4 4 4 4 5 7 7 7 6 5 5 5 7 7 6 8 8 6 5 5 5 4 4 3 2 1 1 1 2 2 2 2 0 0 1 1 1 0 1 0
4 4 4 3 3 3 4 4 6 7 6 5 6 5 6 7 6 7 8 6 3 3 3 4 3 3 2 1 0 -1 -1 1 1 1 1 0 0 1 2 3 1 0 1 1

GFSNW_925_temp_204.txt.gz
Temp
15 14 14 14 13 12 9 8 10 6 7 8 8 10 11 12 14 11 11 11 12 12 13 13 14 15 14 15 15 15 14 13 13 15 17 18 17 16 16 13 12 11 10 10
14 14 14 14 13 11 9 7 6 6 6 9 7 8 9 10 10 11 10 10 11 11 11 11 12 13 14 14 14 14 13 12 11 15 17 16 15 16 15 14 13 11 10 11
14 14 14 13 12 10 10 5 6 5 6 5 8 8 8 8 9 9 10 9 9 9 10 10 10 11 12 13 13 10 11 12 11 11 13 14 12 13 14 13 10 10 10 12
13 12 13 12 11 9 9 6 7 7 6 5 6 8 7 8 8 8 9 8 9 10 9 10 10 12 10 12 11 11 11 10 11 12 12 12 12 12 12 11 12 10 11 12
12 11 11 11 9 8 6 4 5 5 5 6 6 6 7 8 8 8 8 9 9 10 9 11 10 11 10 11 12 11 12 9 10 8 11 11 10 11 11 12 13 13 12 9
11 11 11 9 9 8 4 3 4 6 4 5 6 7 8 8 8 7 8 8 8 9 9 11 12 12 12 12 12 11 11 10 9 8 10 10 9 10 12 13 13 13 10 8
9 8 8 7 7 8 6 4 5 6 7 6 7 7 7 7 7 7 8 9 7 9 11 11 11 11 11 11 11 11 10 10 9 8 9 7 10 13 14 12 12 12 8 8
6 5 6 6 7 8 7 5 6 6 7 7 7 8 8 7 7 7 8 10 10 10 10 8 8 9 10 10 11 11 11 10 8 7 8 9 11 12 10 10 10 6 5 6
5 5 5 6 6 6 7 6 7 8 8 8 10 9 9 9 9 10 10 10 10 9 8 7 6 8 10 10 12 13 12 10 8 8 7 7 11 10 9 11 9 6 4 5
5 5 5 5 5 6 7 6 6 10 9 11 11 11 11 12 12 11 10 9 8 9 7 6 7 7 10 9 9 10 11 10 7 7 6 8 8 9 10 7 6 5 5 5
4 4 5 5 6 6 7 5 6 9 10 8 9 10 10 10 11 10 9 8 8 7 6 7 8 8 9 9 10 9 9 8 7 8 6 5 10 9 6 6 6 6 5 5
4 4 5 5 5 6 7 6 6 8 9 7 8 8 9 8 9 10 9 9 9 8 7 8 7 7 8 8 6 10 8 9 7 7 7 10 10 6 8 7 4 5 5 4
4 4 5 5 5 6 6 6 7 8 9 8 9 8 8 7 8 8 8 9 10 9 10 7 7 6 8 7 8 7 8 9 7 6 9 9 9 10 8 7 6 6 4 5
3 4 4 5 5 6 6 6 7 8 10 8 7 8 8 7 8 8 8 8 9 9 9 7 7 6 8 7 7 7 8 9 8 7 8 8 9 7 7 6 7 5 7 7
3 3 4 4 5 5 6 6 6 6 8 7 8 9 8 7 7 7 8 8 8 8 7 7 6 8 7 8 8 7 9 8 7 6 7 7 8 8 7 5 5 6 6 7
3 3 4 4 4 5 7 5 5 5 6 7 8 8 8 7 7 7 7 8 8 7 7 7 8 9 7 5 6 9 10 10 10 8 7 6 7 8 7 5 7 7 6 7
3 3 3 4 4 5 6 4 4 4 6 7 8 8 8 8 8 8 8 8 7 7 7 6 7 7 7 5 6 8 9 9 8 7 5 4 6 5 5 6 6 6 7 6
3 3 3 4 4 4 5 3 3 4 7 9 7 8 8 8 7 5 5 6 6 6 6 6 6 7 6 5 8 9 9 9 7 7 6 4 5 6 6 6 6 5 5 5
3 3 4 4 6 5 3 3 3 4 5 5 7 8 6 8 7 6 5 5 4 6 4 5 6 6 5 8 9 9 7 6 5 6 6 6 6 5 5 5 5 4 4 4
3 5 5 2 4 2 3 5 4 4 4 6 7 9 7 8 7 6 5 5 5 6 6 8 5 6 9 10 10 8 7 6 6 5 4 4 4 4 4 4 4 4 4 4
6 6 4 4 3 4 4 3 3 4 4 7 8 9 7 8 6 6 7 7 7 6 7 6 7 8 6 10 9 7 6 6 5 5 5 5 4 4 4 5 6 5 4 3
4 4 4 4 4 3 3 5 7 7 8 9 8 8 8 7 7 6 7 6 7 6 7 6 7 8 9 8 7 6 6 6 5 5 5 5 5 6 6 6 5 3 3 1
4 4 3 3 4 3 4 5 7 8 8 8 7 6 7 6 6 6 7 6 6 10 7 8 8 6 7 6 6 6 6 6 6 6 5 5 5 5 4 3 3 0 0 -0
3 3 3 4 4 5 8 7 7 7 8 8 8 7 7 7 6 6 5 7 8 7 7 8 4 4 4 5 5 5 5 4 4 5 4 2 2 1 0 1 -0 0 0 -0
3 4 4 5 7 7 7 7 7 8 9 8 7 7 7 6 6 6 7 7 7 8 7 4 4 5 4 5 4 4 3 2 2 2 2 1 1 0 0 0 0 -0 0 0
4 5 4 6 6 5 5 5 5 8 8 8 7 6 6 6 7 7 7 7 8 5 4 4 4 4 3 3 2 1 1 1 1 2 2 2 1 0 1 1 1 0 0 0
4 5 6 5 4 4 4 4 5 7 7 6 7 5 6 8 7 7 9 7 4 4 4 4 3 2 1 1 0 -0 -0 1 1 1 1 1 0 1 1 2 2 1 0 0

GFSNW_925_temp_210.txt.gz
Temp
15 15 15 15 14 13 12 9 11 7 9 10 9 11 11 14 15 15 15 13 15 15 15 14 15 15 15 15 15 14 13 12 9 12 14 15 14 14 14 10 11 10 10 9
14 14 15 14 14 13 10 9 6 6 7 10 8 9 10 12 12 12 12 12 13 12 13 12 13 13 14 15 14 13 12 10 9 12 13 13 13 13 13 12 9 8 8 9
13 14 15 14 13 13 12 6 7 5 6 6 10 10 9 10 9 11 11 10 10 10 10 11 11 11 12 13 12 12 12 10 9 12 11 11 10 10 11 11 7 8 8 8
12 13 13 13 13 12 11 7 7 7 7 6 7 9 10 9 10 9 9 9 10 10 9 9 10 10 11 10 11 11 9 7 8 9 10 10 10 10 10 9 10 8 8 9
12 13 14 13 13 10 8 6 6 5 6 7 8 8 8 9 9 8 8 9 8 9 9 9 9 9 9 9 8 10 10 6 8 2 9 9 8 9 9 9 10 10 10 9
12 13 13 12 11 10 6 4 5 7 6 6 7 7 9 9 9 8 9 8 8 8 9 8 7 6 7 7 7 7 7 7 7 7 8 8 6 7 9 9 10 9 7 5
12 12 12 11 12 10 8 5 6 7 7 7 7 8 8 8 8 8 8 8 8 7 7 6 6 5 6 7 7 8 7 7 7 6 7 5 9 10 9 8 7 5 5 5
12 12 11 10 9 10 9 6 6 6 6 7 7 8 7 7 7 7 7 7 7 8 7 5 7 8 8 8 8 9 9 8 7 5 6 8 8 8 6 6 5 5 4 4
12 10 10 8 8 8 8 6 8 6 6 6 7 6 7 6 6 6 6 8 8 8 5 5 5 7 8 8 8 9 8 6 4 3 3 3 7 7 7 7 5 4 2 2
10 9 8 7 7 7 8 6 7 6 4 3 6 7 6 6 6 5 6 7 7 6 2 2 4 5 7 4 6 6 6 3 1 4 4 5 5 4 7 4 4 3 2 2
7 6 7 7 7 8 10 6 8 7 4 5 7 7 7 7 6 4 5 5 4 1 -0 1 1 2 5 4 5 5 5 4 3 4 4 3 6 6 4 4 4 4 2 3
6 6 6 7 7 8 8 6 8 8 4 5 7 7 7 7 7 3 4 5 4 2 0 -2 0 3 3 4 2 6 4 5 4 4 3 5 6 4 5 3 0 2 3 3
5 6 6 6 7 8 9 7 8 8 4 4 4 5 7 8 8 8 3 2 5 4 2 -1 0 3 2 2 3 4 5 6 2 3 6 5 5 5 4 4 3 4 3 4
6 6 7 7 8 8 8 7 7 8 3 2 4 7 7 7 7 8 7 5 5 3 1 1 -0 2 3 2 3 3 4 4 3 0 3 4 6 6 6 5 5 4 3 4
6 6 6 7 7 8 8 7 6 7 3 1 3 6 7 7 7 7 7 6 2 1 1 -2 0 2 3 2 2 3 3 3 -0 0 4 3 4 4 4 4 5 4 4 5
6 6 6 6 7 8 9 0 7 7 8 1 1 4 6 7 7 7 6 4 2 0 0 -0 1 3 2 -0 2 4 5 4 4 3 5 4 4 4 4 4 5 5 5 4
5 6 6 6 7 7 2 2 5 6 7 0 1 3 4 7 6 2 2 3 1 1 -0 -1 2 2 0 -2 3 5 5 5 5 5 4 4 3 3 4 4 4 5 5 4
5 5 5 5 5 5 3 4 5 7 5 2 1 2 3 6 2 0 -0 -1 -1 -1 1 -0 2 2 1 1 4 4 5 5 4 4 4 4 4 5 4 4 4 4 4 4
5 5 6 5 4 1 3 4 5 6 5 0 2 2 2 3 2 -1 -1 -2 2 0 -1 1 0 0 1 4 4 5 5 4 4 4 4 4 3 3 4 4 4 4 4 3
5 5 2 -2 2 3 4 5 -1 -1 -1 -1 1 1 1 2 -1 -2 -2 0 2 2 1 1 0 2 4 4 5 5 4 4 3 3 3 3 3 3 3 3 2 3 1 -0
5 -0 -1 3 3 3 -2 -3 -1 -2 1 0 2 2 1 1 0 -0 -0 1 2 3 0 2 3 2 1 4 4 3 3 3 3 3 3 3 4 2 2 2 1 0 -0 -1
3 3 3 3 1 -2 -1 -1 1 3 4 3 3 4 0 -0 1 -1 0 2 -0 3 2 3 1 4 3 3 3 3 3 4 4 4 4 3 3 2 1 1 0 0 -0 -0
4 2 1 -1 -2 -3 1 -1 3 1 1 2 0 1 1 -0 -1 1 1 2 1 2 0 3 1 3 2 2 2 2 2 4 4 3 2 2 1 1 0 0 0 -0 -1 -0
-1 -1 -3 -2 -4 -0 0 2 1 1 -0 1 -0 1 1 1 1 2 3 3 3 0 2 4 1 3 3 2 3 3 2 1 1 1 1 1 0 0 0 0 0 -1 -3 -0
0 -1 -2 -1 1 2 1 -1 2 1 2 3 2 1 0 0 1 1 3 2 2 3 2 1 2 2 3 2 2 1 -0 -1 -1 -1 -1 -2 -2 -1 -1 -1 -1 -1 -2 -2
1 2 0 1 2 -1 -3 -2 -1 1 1 1 -0 1 1 2 3 3 1 4 3 3 1 1 1 1 1 1 0 -0 -1 -1 -2 -2 -2 -2 -2 -3 -2 -2 -2 -2 -2 -3
2 -1 -3 -2 -2 -3 -2 -3 0 2 2 -1 0 2 3 1 2 3 1 -0 -1 -2 -1 -2 0 0 0 -1 -0 -1 -1 -2 -2 -2 -2 -2 -2 -2 -2 -2 -2 -2 -3 -4

GFSNW_925_temp_216.txt.gz
Temp
12 12 13 13 13 12 12 10 12 8 10 12 11 11 13 14 15 15 15 15 15 16 15 15 16 16 17 15 15 14 14 12 12 14 15 13 13 13 14 12 12 10 9 11
12 12 12 12 12 12 12 11 8 7 8 11 10 10 12 13 14 14 14 13 14 14 14 14 15 15 13 14 14 12 12 11 12 13 11 11 12 12 11 8 7 8 9 10
12 12 12 12 12 12 12 8 8 6 7 7 11 10 10 11 11 13 13 12 12 12 12 13 13 13 12 12 12 11 11 10 11 12 14 9 9 10 8 7 7 7 8 8
12 12 12 12 12 12 13 9 8 9 8 7 9 12 11 11 12 10 11 10 12 12 11 11 12 13 11 10 10 10 10 9 8 9 8 9 8 8 8 7 7 7 8 7
12 12 12 12 12 12 13 7 7 6 7 10 9 9 9 13 12 10 10 11 11 11 11 11 10 10 10 10 9 8 7 8 6 2 7 7 8 7 7 7 7 7 8 8
12 12 12 11 12 11 11 6 6 10 7 7 9 10 12 11 11 10 10 10 10 9 10 9 8 8 8 8 8 7 7 5 5 6 7 7 6 5 7 8 8 8 7 7
11 12 11 11 12 12 12 7 8 9 8 8 9 10 11 11 10 11 9 9 9 7 6 6 6 6 7 7 7 7 7 6 7 6 7 2 7 8 8 6 7 6 5 4
10 11 11 10 11 12 11 10 10 9 13 9 8 9 9 8 7 7 8 7 7 6 6 5 7 6 6 7 6 6 6 6 5 4 5 6 7 4 4 4 4 5 2 4
10 11 11 11 11 11 10 9 9 8 8 8 9 8 8 6 6 5 5 5 6 6 4 5 6 7 8 7 7 6 5 4 2 2 1 2 6 4 4 4 3 5 2 3
10 11 11 11 11 10 9 7 8 7 5 5 7 7 7 6 5 5 4 5 4 5 3 4 6 6 6 5 6 6 5 3 0 -3 -3 1 4 4 4 0 2 1 2 2
10 11 11 11 10 9 8 4 6 6 4 2 4 5 6 5 4 5 4 4 4 2 1 4 3 4 5 5 6 5 5 2 1 0 -4 -0 4 3 2 2 3 3 2 3
11 11 10 10 8 8 8 3 3 5 3 1 2 3 3 5 6 3 3 5 4 3 1 -1 2 4 3 4 1 4 3 3 0 2 2 5 4 3 3 3 1 2 3 3
11 9 8 7 7 7 9 3 3 2 1 1 3 4 6 7 7 8 4 2 3 3 2 0 1 4 2 1 2 4 4 3 2 3 5 4 4 3 2 2 1 2 2 2
7 6 7 7 7 7 8 4 3 4 2 2 4 6 5 6 8 8 7 3 2 0 1 1 -0 2 2 1 2 1 2 3 3 -1 2 3 3 3 3 3 3 3 3 3
6 7 7 7 6 6 5 4 5 6 4 2 3 4 5 5 6 5 5 3 1 1 1 -2 0 1 2 1 1 1 1 2 -1 0 2 1 4 4 3 3 3 4 3 2
6 6 6 5 5 6 8 3 7 7 8 3 2 2 4 4 5 3 2 1 -1 -1 -0 -1 0 1 1 -1 1 3 2 2 3 2 3 2 3 2 3 3 3 2 2 2
4 4 4 5 8 9 3 3 7 8 8 1 1 2 3 4 2 -1 0 0 -1 -0 -2 -1 1 1 -2 -3 1 4 3 3 3 2 3 2 3 3 3 2 2 3 4 3
6 7 8 8 7 6 4 5 7 7 4 2 2 2 3 4 1 -0 -2 -2 -2 -2 -1 -1 1 0 -1 0 3 3 3 3 2 2 2 3 3 3 3 3 2 2 2 3
8 8 8 8 6 2 4 5 7 8 5 0 1 2 1 1 -1 -2 -2 -3 -1 -1 -2 0 -0 -0 -0 3 3 2 3 3 3 3 3 3 3 3 2 2 2 2 1 1
8 9 3 -1 2 3 5 6 1 -1 -1 -0 1 1 1 1 -2 -3 -3 -3 -3 -2 0 -0 -1 1 2 1 1 1 1 1 2 2 2 2 1 2 2 2 1 1 1 0
5 -1 -1 2 3 4 -1 -1 1 -0 2 1 1 1 0 -0 -0 -1 -2 -1 -1 -2 -1 -0 1 0 -1 2 1 1 1 2 2 2 2 2 2 2 2 2 1 1 1 -0
3 2 2 3 -0 -1 -0 -1 1 3 3 2 2 2 -0 -1 -0 -1 -1 1 -1 2 -0 2 -1 1 3 3 2 1 1 2 2 2 2 2 2 1 1 0 0 -0 -1 -1
5 1 -0 -1 -3 -1 0 -1 2 0 1 0 -1 -1 0 -2 -2 -1 0 3 -1 1 2 1 1 0 2 2 1 1 2 1 1 1 0 -0 -0 -1 -1 -1 -1 -2 -2 -2
-1 -1 -2 -3 -5 -0 -0 1 0 -1 -1 0 -0 -0 0 -0 1 -0 1 2 1 -0 1 2 -4 -2 1 2 1 1 1 1 -1 -1 -1 -1 -2 -2 -2 -2 -2 -3 -3 -3
-0 -1 -3 -2 0 -0 -3 -3 -1 -0 0 1 1 -0 -0 -1 -1 0 2 1 2 2 1 -2 -2 0 2 2 1 0 0 -1 -2 -2 -2 -3 -3 -4 -3 -2 -3 -3 -3 -4
0 1 1 2 2 0 -4 -3 -1 -0 -0 0 -1 -0 -0 1 2 2 1 3 2 -0 -1 -1 -2 1 1 0 -1 -1 -1 -1 -2 -3 -3 -3 -3 -4 -3 -3 -3 -4 -4 -4
2 -3 -3 -3 -2 -3 -5 -4 -0 -1 1 -2 0 1 3 0 0 2 1 -2 -4 -4 -3 -3 -1 -1 -1 -1 -2 -2 -2 -3 -3 -3 -3 -4 -4 -4 -4 -4 -5 -5 -5 -6

GFSNW_925_temp_222.txt.gz
Temp
10 9 10 11 11 12 11 12 13 10 11 13 13 14 17 17 19 17 18 19 20 20 20 19 19 20 20 21 21 20 18 16 15 17 18 18 19 18 18 15 16 15 15 16
9 8 9 11 11 11 12 12 11 8 10 13 12 12 15 17 18 17 17 18 19 19 19 17 19 19 18 18 19 14 15 14 15 16 16 17 17 18 19 16 12 14 15 17
9 8 10 10 11 11 13 10 9 7 8 14 15 13 12 15 14 16 17 16 16 16 16 17 17 16 15 12 13 11 13 13 14 15 18 15 11 15 15 14 12 15 16 16
8 8 9 10 11 11 14 14 12 11 9 9 15 15 14 14 14 13 15 14 16 16 13 16 16 17 14 10 10 10 11 11 11 12 12 13 13 12 11 11 13 12 14 13
9 9 7 10 10 11 14 11 10 12 12 13 13 13 13 15 15 13 13 14 15 16 15 15 17 15 13 11 9 9 8 10 10 10 14 14 13 14 13 13 12 12 12 12
8 9 7 10 10 11 13 12 12 15 11 11 12 13 15 15 16 14 16 15 15 13 15 14 11 11 10 10 9 9 8 10 10 13 11 12 11 11 12 13 13 12 11 12
7 9 7 10 10 11 13 13 14 12 10 11 12 14 14 15 15 16 14 12 14 9 9 8 8 7 7 9 9 9 8 10 10 11 11 11 12 12 12 12 12 12 11 12
9 8 7 10 11 11 10 12 15 14 12 12 12 14 14 15 15 14 12 9 9 9 7 7 8 8 8 9 7 7 7 9 10 10 12 14 13 10 10 10 10 12 10 10
9 7 9 10 10 11 11 11 15 14 14 12 14 13 14 11 9 6 6 5 4 5 6 8 10 13 14 11 9 9 5 7 9 8 9 11 12 10 10 9 9 10 7 8
6 7 9 10 11 11 10 10 12 12 12 7 12 12 12 10 9 7 4 4 4 4 7 9 11 12 12 11 11 9 8 7 8 9 9 11 11 9 9 7 9 9 9 9
6 7 9 9 11 11 10 6 10 11 5 2 3 6 7 6 8 7 4 5 4 5 9 10 10 11 11 11 12 10 10 9 8 9 8 7 10 8 7 10 9 10 9 9
6 7 9 10 11 10 9 5 6 8 3 1 0 1 1 2 5 4 4 6 6 8 8 7 9 9 9 11 10 10 10 11 10 10 10 11 10 9 10 10 8 9 9 9
7 7 8 9 10 9 9 4 4 4 2 1 2 1 1 2 3 4 5 4 7 7 8 8 8 9 11 10 11 10 10 10 9 8 11 11 10 10 11 10 10 10 10 9
8 7 8 9 8 8 9 5 4 4 2 3 1 -0 0 2 4 5 5 6 5 7 9 9 9 10 9 9 9 9 10 9 8 8 9 10 10 10 10 10 10 10 9 9
7 8 8 7 6 7 6 3 2 4 4 2 2 1 1 2 4 6 6 7 8 9 9 9 9 9 9 8 8 9 10 9 7 9 10 9 10 10 10 9 9 10 9 9
7 7 6 7 7 7 9 3 2 2 3 3 3 1 3 4 5 5 5 7 7 9 9 9 8 7 8 7 8 10 10 10 10 9 10 9 9 9 9 9 9 9 9 8
6 4 5 5 6 7 5 6 4 3 4 2 2 2 4 3 5 4 6 6 7 8 7 7 8 8 7 7 8 9 9 9 9 9 8 7 9 9 9 9 9 8 7 7
4 4 5 6 5 4 2 2 3 4 3 4 3 3 5 4 6 5 5 6 7 5 6 6 7 6 7 6 9 8 8 8 8 8 9 8 8 8 8 8 7 6 6 6
5 5 5 5 4 3 3 3 5 6 6 5 6 5 5 6 5 5 5 5 5 5 6 7 6 7 6 8 8 8 7 7 7 7 7 7 7 7 6 4 5 5 5 6
5 6 4 3 2 4 3 4 7 6 6 7 6 7 5 7 5 4 5 5 5 6 6 6 6 7 8 8 7 6 6 6 6 6 6 6 6 6 6 6 5 4 4 3
4 3 3 3 4 5 6 5 7 6 6 7 6 7 5 5 6 5 5 6 5 6 5 6 7 7 5 6 6 6 5 5 6 6 6 5 5 4 3 2 2 2 2 1
5 6 2 3 5 6 6 5 6 8 7 7 7 7 6 5 7 6 5 5 5 6 5 5 6 7 6 6 5 4 4 4 4 4 3 2 2 1 1 2 1 1 0 -0
9 5 4 7 4 7 8 5 6 6 6 6 6 6 6 5 7 6 6 5 5 5 5 6 7 5 5 4 4 4 3 3 2 2 1 -0 -1 -1 -2 -1 -1 -1 -1 -1
5 6 4 6 6 6 7 8 7 5 6 8 7 6 7 6 6 6 5 5 6 5 5 6 6 5 5 6 5 2 1 1 1 0 -1 -2 -2 -2 -2 -3 -3 -3 -3 -4
4 5 4 3 3 3 4 5 6 8 8 8 7 7 7 6 4 5 5 4 5 6 7 6 6 5 4 2 1 1 0 -0 0 -0 -1 -2 -3 -3 -2 -3 -3 -4 -4 -5
4 5 4 4 4 4 5 6 6 8 8 8 8 6 6 5 6 5 5 6 7 7 6 6 4 2 2 1 0 -0 -0 -1 -1 -1 -1 -2 -3 -3 -2 -3 -3 -4 -4 -5
5 3 4 5 5 5 5 6 6 6 8 6 7 6 6 6 6 6 7 6 6 6 4 1 1 1 -0 0 -0 -1 -2 -1 -2 -2 -2 -3 -3 -3 -3 -3 -4 -4 -4 -5

GFSNW_925_temp_228.txt.gz
Temp
9 9 10 10 10 10 10 11 12 13 12 12 13 13 16 18 22 23 23 21 21 24 24 24 23 24 25 25 24 22 20 21 18 20 22 22 22 21 21 17 19 19 18 19
8 9 10 10 10 10 10 11 12 13 13 12 12 15 16 18 20 21 22 21 22 24 22 22 23 23 20 22 23 21 20 18 17 19 20 21 19 20 21 20 18 17 17 19
8 8 9 10 10 9 10 11 9 9 12 15 15 15 15 17 20 21 22 22 21 21 21 22 21 22 19 18 17 14 18 18 16 17 18 19 14 15 18 17 15 15 16 18
7 8 8 10 10 9 9 11 11 10 10 12 15 16 17 17 18 20 21 21 20 20 16 20 20 21 17 17 12 16 16 14 17 17 17 17 16 16 14 15 15 14 16 18
7 7 8 9 10 9 8 11 11 11 14 14 14 15 16 17 19 20 19 19 20 19 19 19 19 20 21 19 14 13 12 14 13 12 13 13 13 14 15 15 15 16 16 16
7 7 7 8 9 9 9 10 11 12 12 13 13 15 17 18 18 19 20 18 18 18 19 20 15 13 16 16 14 13 9 10 10 13 14 13 13 14 16 18 18 15 14 16
7 7 7 7 8 9 9 11 10 11 11 13 13 16 17 17 18 17 18 18 17 17 14 14 14 13 12 12 14 14 9 10 9 12 11 13 18 19 18 18 18 19 19 19
7 7 7 7 8 8 8 9 10 11 11 13 14 15 17 17 17 17 17 16 13 14 14 13 13 13 13 13 11 11 10 9 10 11 13 16 17 18 16 15 15 17 16 16
6 7 7 7 7 8 7 8 8 10 11 12 15 16 17 16 15 12 8 6 7 11 11 11 12 13 14 13 11 7 7 7 10 11 12 14 15 15 15 15 12 14 10 13
6 7 7 7 7 8 7 8 8 8 11 11 14 15 15 17 16 12 6 6 7 7 11 11 12 13 15 13 13 9 8 8 9 10 11 13 16 14 14 11 11 11 11 11
6 7 7 6 6 7 7 7 8 8 7 4 4 5 15 16 15 11 5 8 6 6 9 11 10 10 11 13 16 14 11 10 10 10 11 12 15 13 11 11 12 12 12 12
7 7 7 7 7 7 7 8 7 7 4 2 2 1 1 3 7 7 7 11 8 9 10 8 9 10 10 12 12 16 11 13 11 13 12 13 14 12 13 13 12 12 12 12
6 7 7 6 7 7 6 7 6 4 2 2 2 1 1 3 3 5 8 6 8 8 7 8 7 9 10 10 10 12 13 15 12 12 14 13 13 14 14 14 13 14 14 13
7 7 7 7 7 7 6 6 7 6 4 4 2 0 0 2 3 5 6 5 4 5 5 5 6 8 11 9 11 12 14 14 12 11 12 12 13 13 13 13 13 13 13 13
7 7 7 7 7 6 6 6 7 8 7 4 3 1 1 3 3 4 4 5 5 4 4 6 7 10 11 11 12 12 14 13 11 10 13 12 12 12 12 12 12 12 12 12
7 7 7 7 7 6 6 4 4 6 6 4 3 0 2 3 4 4 5 5 5 5 6 8 11 11 11 11 12 13 14 15 14 12 12 12 12 12 12 12 12 12 12 12
7 7 7 7 7 6 8 7 5 5 4 3 3 4 2 2 3 3 4 5 6 8 10 10 11 10 10 10 12 12 12 12 12 12 11 10 11 11 12 12 11 10 10 10
7 6 6 5 5 5 4 3 4 5 3 3 4 3 4 2 4 4 6 6 8 9 10 11 11 10 10 10 13 12 12 11 11 11 11 11 11 10 10 9 9 9 8 7
5 4 4 4 3 1 2 3 4 4 4 4 4 6 5 3 4 4 5 8 8 10 9 11 11 10 9 12 13 12 10 9 10 10 9 8 7 7 5 5 4 3 2 2
5 5 2 2 1 2 2 3 3 3 3 5 7 7 4 6 5 6 7 9 8 8 10 10 10 11 12 11 11 10 10 9 8 6 4 4 2 2 1 1 1 -0 -1 -1
4 1 2 1 1 2 3 4 5 4 5 6 8 7 5 7 8 8 10 8 9 9 8 9 10 10 8 10 10 9 8 6 5 5 4 3 2 1 0 0 0 -0 -0 -2
3 3 1 0 2 4 5 6 7 8 8 9 7 7 8 10 11 9 10 9 10 10 9 9 10 9 10 10 9 7 5 4 4 3 2 1 1 0 0 -0 -1 -1 -1 -2
4 4 3 4 4 6 7 6 10 9 10 8 8 8 9 10 11 9 9 8 8 9 8 9 7 8 8 7 6 5 4 4 3 2 2 1 -0 -1 -1 -1 -2 -2 -3 -3
5 5 5 6 6 9 11 11 10 9 9 9 9 9 9 10 9 9 8 9 9 8 8 9 6 7 7 6 5 5 3 3 3 2 1 -0 -1 -1 -2 -2 -2 -3 -4 -4
4 5 5 5 5 7 9 9 9 9 10 10 11 10 10 8 7 9 8 8 8 10 10 8 7 6 5 4 4 3 3 2 2 2 1 -1 -2 -2 -1 -1 -2 -3 -3 -4
6 6 5 5 7 7 7 8 8 11 11 12 11 10 9 9 9 9 8 9 10 9 7 6 5 4 3 3 2 2 2 2 1 1 0 -0 -1 -1 -2 -1 -2 -3 -3 -3
5 5 7 7 8 8 8 10 11 13 11 10 11 9 10 10 10 10 11 9 7 6 5 5 5 4 3 2 1 -0 1 1 0 0 -1 -1 -1 -2 -1 -2 -2 -3 -3 -4

GFSNW_925_temp_231.txt.gz
Temp
8 8 9 10 9 10 9 11 12 11 13 11 11 12 14 16 17 19 19 20 20 20 21 22 20 22 22 20 21 21 18 17 16 17 20 20 19 18 18 15 16 14 14 17
8 8 8 9 9 9 9 9 10 12 13 11 12 13 14 15 16 18 19 19 20 21 20 20 21 20 17 18 19 19 18 15 12 16 17 18 18 18 18 17 14 15 15 16
7 8 8 8 9 9 10 10 9 9 11 12 13 13 13 13 16 16 17 18 19 19 19 20 20 20 17 16 15 14 16 16 15 15 16 16 14 16 16 15 14 15 15 16
7 7 7 8 9 9 10 10 10 10 9 11 13 14 15 14 14 16 18 17 17 17 15 18 17 19 16 15 13 14 15 12 14 15 15 15 14 14 14 14 15 13 15 16
7 7 7 7 8 9 8 8 9 10 11 13 12 12 13 14 14 16 15 16 17 17 16 16 17 18 17 15 13 13 11 12 11 11 14 14 13 14 14 14 14 15 15 15
7 7 7 7 7 8 8 9 10 10 10 11 12 13 13 14 15 15 16 17 17 16 17 16 13 13 13 14 12 11 9 10 10 15 14 12 13 15 16 15 15 15 14 15
7 7 7 7 7 9 10 10 10 10 10 11 12 14 14 14 15 14 17 17 16 15 12 13 13 12 12 13 13 12 10 10 10 13 12 13 16 17 17 15 16 16 16 15
7 7 7 7 7 8 9 10 10 10 11 12 13 13 14 14 15 15 16 12 11 12 13 11 11 11 13 12 10 11 11 10 11 13 14 14 15 15 15 14 13 11 12 12
6 7 7 7 7 8 8 9 9 9 10 11 13 13 14 13 13 14 8 7 7 11 8 10 12 13 14 13 10 8 7 8 10 10 11 13 13 13 14 14 10 10 8 8
6 7 7 7 7 8 7 8 9 8 8 9 10 12 12 14 14 13 6 7 9 8 9 11 12 12 14 12 12 9 8 8 9 10 11 11 14 12 13 10 10 10 10 10
6 6 7 7 7 7 7 8 8 8 7 5 3 4 9 12 13 10 6 8 6 7 11 11 11 11 11 12 14 11 10 9 8 9 10 10 12 12 10 9 10 10 11 10
6 6 7 7 7 7 7 7 7 8 6 3 2 2 1 2 3 6 7 10 7 8 9 9 9 9 9 10 12 12 10 9 10 10 10 12 13 10 12 9 8 10 10 10
6 6 6 7 7 7 7 6 6 7 3 3 3 2 2 3 3 3 8 6 8 7 6 7 8 9 8 10 9 10 9 11 8 9 10 11 12 12 12 11 10 10 11 10
6 6 6 7 7 6 7 6 6 8 4 5 3 1 1 3 4 4 5 6 5 5 5 6 6 8 8 8 8 8 8 10 9 8 11 11 11 10 10 10 10 10 10 9
6 6 6 6 6 7 7 7 7 8 6 4 2 1 2 4 4 5 6 6 5 4 5 5 6 6 6 5 7 6 11 10 7 7 10 8 9 9 10 10 9 9 9 8
6 6 6 6 7 7 6 4 6 7 9 3 4 1 1 1 3 4 5 5 4 4 4 4 5 7 6 5 6 11 11 10 10 9 9 8 9 10 9 8 7 7 6 6
6 6 6 6 6 6 7 6 6 6 7 3 3 3 2 1 1 1 2 3 4 4 3 4 5 6 6 6 9 10 11 10 10 9 9 8 7 5 5 4 4 3 2 1
5 6 6 7 6 6 6 5 6 6 3 3 4 3 3 1 3 3 3 3 3 4 5 6 6 5 6 6 10 11 10 10 9 7 6 5 4 3 2 2 1 1 1 -0
7 7 6 5 4 2 3 3 4 5 5 4 3 4 4 3 3 3 3 4 4 5 5 6 6 6 6 9 10 9 8 7 6 4 4 3 2 2 1 1 0 -1 -1 -2
5 4 3 2 1 3 4 3 3 3 2 3 5 5 4 4 4 4 4 4 5 5 7 7 5 6 9 9 8 6 5 4 4 2 1 1 1 0 -0 -0 -1 -2 -2 -2
3 1 1 2 3 2 2 3 4 3 4 4 4 5 4 4 5 4 5 5 6 7 5 5 5 5 5 8 5 4 4 3 3 2 1 0 -0 -1 -1 -2 -2 -2 -3 -3
3 2 0 0 1 3 4 5 4 5 6 5 4 4 4 4 5 5 6 7 6 8 5 5 5 5 8 5 4 3 3 2 1 1 0 -1 -1 -2 -2 -2 -3 -3 -3 -4
5 2 2 3 3 5 5 5 5 5 5 5 5 5 5 6 6 5 6 6 5 6 3 5 4 5 4 3 3 3 3 2 1 0 -0 -1 -1 -2 -2 -2 -2 -3 -4 -4
3 4 3 4 3 4 5 6 6 5 6 6 7 7 6 6 6 6 7 6 5 4 4 5 5 4 4 3 3 2 1 1 -0 -1 -1 -2 -2 -2 -2 -2 -2 -4 -3 -4
3 4 4 4 4 4 5 6 7 7 8 8 7 6 6 5 6 5 6 5 5 6 5 5 4 5 4 3 2 0 -1 -2 -2 -1 -2 -3 -3 -2 -2 -2 -3 -3 -3 -4
4 4 4 4 5 5 6 7 7 8 8 7 6 6 5 6 6 6 5 6 6 5 4 4 3 2 1 1 0 -0 0 -0 -1 -1 -2 -2 -2 -2 -2 -2 -3 -4 -4 -4
4 4 4 5 6 6 6 7 8 8 8 6 5 7 8 5 5 7 4 3 5 4 3 2 1 1 -0 -1 -1 -1 -0 -1 -1 -2 -2 -2 -2 -2 -2 -3 -4 -4 -5 -6